Patterson, LA

3:16 AM CST on November 21, 2019 (GMT -0600)
Williams Memorial

Weather History for KPTN - September, 2019

Change the Weather History Date:

Monday, September 9, 2019

  Actual Average Record
Temperature  
Mean Temperature 86 °F -  
Max Temperature 93 °F 85 °F 91 °F (2007)
Min Temperature 79 °F 70 °F 59 °F (2011)
Cooling Degree Days 21    
Growing Degree Days 36 (Base 50)    
Moisture  
Dew Point 78 °F    
Average Humidity 84    
Maximum Humidity 97    
Minimum Humidity 56    
Precipitation  
Precipitation 0.02 in - - ()
Sea Level Pressure  
Sea Level Pressure 30.05 in    
Wind  
Wind Speed 3 mph (ESE)    
Max Wind Speed 9 mph    
Max Gust Speed -    
Visibility 9 miles    
Events Rain    
Averages and records for this station are not official NWS values.
T = Trace of Precipitation, MM = Missing Value Source: NWS Daily Summary

Daily Weather History Graph

Daily Weather History Graph

Search for Another Location

Airport or City:

Astronomy

Sep. 09, 2019 Rise Set
Actual Time 6:46 AM CDT 7:18 PM CDT
Civil Twilight 6:22 AM CDT 7:42 PM CDT
Nautical Twilight 5:54 AM CDT 8:10 PM CDT
Astronomical Twilight 5:25 AM CDT 8:38 PM CDT
Moon 4:54 PM CDT (9/9) 2:39 AM CDT (9/9)
Length of Visible Light 13h 19m
Length of Day
12h 31m
Waxing Gibbous, 83% of the Moon is Illuminated
Sep 9
Waxing Gibbous
Sep 13
Full
Sep 21
Last Quarter
Sep 28
New
Oct 5
First Quarter

Hourly Weather History & Observations

Time (CDT) Temp. Heat Index Dew Point Humidity Pressure Visibility Wind Dir Wind Speed Gust Speed Precip Events Conditions
12:56 AM 79.0 °F - 78.1 °F 97% 30.01 in 10.0 mi Calm Calm - N/A   Mostly Cloudy
1:56 AM 79.0 °F - 78.1 °F 97% 30.01 in 10.0 mi Calm Calm - N/A   Clear
2:56 AM 80.1 °F 85.8 °F 77.0 °F 90% 30.02 in 10.0 mi WNW 4.6 mph - N/A   Mostly Cloudy
3:56 AM 81.0 °F 87.9 °F 77.0 °F 88% 30.02 in 10.0 mi West 3.5 mph - N/A   Mostly Cloudy
4:56 AM 80.1 °F 85.8 °F 77.0 °F 90% 30.03 in 10.0 mi Calm Calm - N/A   Partly Cloudy
5:56 AM 80.1 °F 85.8 °F 77.0 °F 90% 30.04 in 10.0 mi Calm Calm - N/A   Partly Cloudy
6:56 AM 79.0 °F - 78.1 °F 97% 30.05 in 10.0 mi Calm Calm - N/A   Clear
7:56 AM 79.0 °F - 78.1 °F 97% 30.07 in 5.0 mi Calm Calm - N/A   Clear
8:56 AM 80.1 °F 86.7 °F 79.0 °F 96% 30.09 in 4.0 mi East 3.5 mph - N/A   Scattered Clouds
9:56 AM 82.0 °F 91.6 °F 79.0 °F 90% 30.10 in 9.0 mi NNE 4.6 mph - N/A   Mostly Cloudy
10:56 AM 84.0 °F 94.8 °F 78.1 °F 82% 30.09 in 10.0 mi NNE 6.9 mph - N/A   Clear
11:56 AM 89.1 °F 101.4 °F 77.0 °F 67% 30.09 in 10.0 mi East 4.6 mph - N/A   Clear
12:56 PM 90.0 °F 102.5 °F 77.0 °F 65% 30.07 in 10.0 mi East 6.9 mph - N/A   Clear
1:56 PM 93.0 °F 112.1 °F 80.1 °F 66% 30.06 in 10.0 mi East 4.6 mph - N/A   Scattered Clouds
2:56 PM 91.9 °F 107.3 °F 78.1 °F 64% 30.03 in 10.0 mi East 4.6 mph - N/A   Scattered Clouds
3:56 PM 93.0 °F 104.6 °F 75.0 °F 56% 30.01 in 10.0 mi Variable 6.9 mph - N/A   Clear
4:56 PM 91.0 °F 102.9 °F 75.9 °F 61% 29.99 in 10.0 mi SE 8.1 mph - N/A   Clear
5:56 PM 87.1 °F 99.8 °F 78.1 °F 74% 30.01 in 10.0 mi SSE 9.2 mph - N/A   Partly Cloudy
6:56 PM 84.9 °F 97.5 °F 79.0 °F 82% 30.03 in 10.0 mi SSW 3.5 mph - N/A   Clear
7:56 PM 82.0 °F 91.6 °F 79.0 °F 90% 30.05 in 9.0 mi SSE 4.6 mph - 0.01 in Rain Light Rain
8:56 PM 82.0 °F 91.0 °F 78.1 °F 88% 30.06 in 10.0 mi SE 4.6 mph - 0.01 in   Clear
9:56 PM 80.1 °F 86.4 °F 78.1 °F 94% 30.07 in 10.0 mi Calm Calm - N/A   Clear
10:56 PM 80.1 °F 85.8 °F 77.0 °F 90% 30.07 in 6.0 mi SE 4.6 mph - N/A   Clear
11:56 PM 80.1 °F 86.4 °F 78.1 °F 94% 30.08 in 9.0 mi Calm Calm - N/A   Clear